Location: Wien
(48.2082°N, 16.3738°E)
Time: 15:46:48
(UTC+02:00)

DOVE 4 - Pass Details

Date: 24 March 2019
Orbit: 587 x 804 km, 97.7° (Epoch: 25 April)

Event Time Altitude Azimuth Distance (km) Brightness Sun altitude
Rises 03:34:41 0° 10° (N) 2,964 ? -22.4°
Reaches altitude 10° 03:36:57 10° 8° (N) 2,020 ? -22.0°
Maximum altitude 03:41:16 63° 287° (WNW) 682 ? -21.4°
Enters shadow 03:41:33 61° 264° (W) 693 ? -21.4°
